Tucson, AZ

12:08 PM MST on October 18, 2019 (GMT -0700)
Tucson International

Weather History for KTUS - August, 2019

Change the Weather History Date:

Friday, August 23, 2019

  Actual Average Record
Temperature  
Mean Temperature 87 °F 85 °F  
Max Temperature 98 °F 98 °F 107 °F (1985)
Min Temperature 76 °F 73 °F 60 °F (1900)
Degree Days  
Heating Degree Days 0 0  
Month to date heating degree days 0 0  
Since 1 June heating degree days 0 0  
Since 1 July heating degree days 0 0  
Cooling Degree Days 22 20  
Month to date cooling degree days 572 466  
Year to date cooling degree days 2349 2245  
Since 1 June cooling degree days 1977 1743  
Growing Degree Days 38 (Base 50)    
Moisture  
Dew Point 57 °F    
Average Humidity 39    
Maximum Humidity 62    
Minimum Humidity 14    
Precipitation  
Precipitation 0.00 in 0.08 in 2.29 in (2005)
Month to date precipitation 1.15 1.85  
Year to date precipitation 7.25 7.37  
Sea Level Pressure  
Sea Level Pressure 29.81 in    
Wind  
Wind Speed 9 mph (SW)    
Max Wind Speed 30 mph    
Max Gust Speed 38 mph    
Visibility 10 miles    
Events      
T = Trace of Precipitation, MM = Missing Value Source: NWS Daily Summary

Daily Weather History Graph

Daily Weather History Graph

Search for Another Location

Airport or City:

Astronomy

Aug. 23, 2019 Rise Set
Actual Time 5:53 AM MST 6:59 PM MST
Civil Twilight 5:27 AM MST 7:24 PM MST
Nautical Twilight 4:57 AM MST 7:54 PM MST
Astronomical Twilight 4:26 AM MST 8:25 PM MST
Moon 11:56 PM MST (8/23) 1:07 PM MST (8/23)
Length of Visible Light 13h 56m
Length of Day
13h 05m
Waning Gibbous, 48% of the Moon is Illuminated
Aug 23
Waning Gibbous
Aug 30
New
Sep 5
First Quarter
Sep 13
Full
Sep 21
Last Quarter

Hourly Weather History & Observations

Time (MST) Temp. Heat Index Dew Point Humidity Pressure Visibility Wind Dir Wind Speed Gust Speed Precip Events Conditions
12:53 AM 80.1 °F 81.2 °F 62.1 °F 54% 29.75 in 10.0 mi SSE 10.4 mph - N/A   Clear
1:53 AM 78.1 °F - 61.0 °F 56% 29.76 in 10.0 mi SSE 11.5 mph - N/A   Clear
2:53 AM 78.1 °F - 62.1 °F 58% 29.76 in 10.0 mi South 5.8 mph - N/A   Clear
3:53 AM 77.0 °F - 62.1 °F 60% 29.76 in 10.0 mi SE 9.2 mph - N/A   Clear
4:53 AM 78.1 °F - 60.1 °F 54% 29.78 in 10.0 mi South 9.2 mph - N/A   Mostly Cloudy
5:53 AM 79.0 °F - 60.1 °F 52% 29.80 in 10.0 mi SE 5.8 mph - N/A   Overcast
6:53 AM 77.0 °F - 63.0 °F 62% 29.85 in 10.0 mi Variable 3.5 mph - N/A   Partly Cloudy
7:53 AM 82.0 °F 82.4 °F 60.1 °F 47% 29.86 in 10.0 mi SSW 3.5 mph - N/A   Partly Cloudy
8:53 AM 82.9 °F 83.3 °F 61.0 °F 47% 29.89 in 10.0 mi South 3.5 mph - N/A   Clear
9:53 AM 87.1 °F 86.1 °F 57.9 °F 37% 29.88 in 10.0 mi WNW 8.1 mph 18.4 mph N/A   Clear
10:53 AM 89.1 °F 87.1 °F 55.0 °F 31% 29.86 in 10.0 mi NW 8.1 mph 17.3 mph N/A   Clear
11:53 AM 91.0 °F 88.9 °F 55.0 °F 29% 29.84 in 10.0 mi WNW 4.6 mph - N/A   Clear
12:53 PM 93.9 °F 91.7 °F 54.0 °F 26% 29.81 in 10.0 mi WNW 5.8 mph - N/A   Clear
1:53 PM 95.0 °F 93.0 °F 55.0 °F 26% 29.78 in 10.0 mi West 8.1 mph - N/A   Clear
2:53 PM 97.0 °F 94.6 °F 53.1 °F 23% 29.75 in 10.0 mi WNW 11.5 mph 18.4 mph N/A   Clear
3:53 PM 96.1 °F - 51.1 °F 22% 29.73 in 10.0 mi WNW 9.2 mph 18.4 mph N/A   Clear
4:53 PM 96.1 °F - 52.0 °F 22% 29.72 in 10.0 mi WNW 11.5 mph 20.7 mph N/A   Clear
5:53 PM 96.1 °F - 50.0 °F 21% 29.72 in 10.0 mi WNW 11.5 mph 18.4 mph N/A   Clear
6:53 PM 93.9 °F 91.4 °F 53.1 °F 25% 29.76 in 10.0 mi WNW 4.6 mph - N/A   Mostly Cloudy
7:53 PM 91.0 °F 90.0 °F 57.9 °F 33% 29.80 in 10.0 mi SSW 24.2 mph 33.4 mph N/A   Overcast
8:53 PM 81.0 °F 81.1 °F 57.9 °F 45% 29.87 in 10.0 mi SSW 17.3 mph 29.9 mph N/A   Scattered Clouds
9:53 PM 77.0 °F - 57.9 °F 52% 29.90 in 10.0 mi SSE 12.7 mph 24.2 mph N/A   Clear
10:53 PM 78.1 °F - 57.9 °F 50% 29.91 in 10.0 mi SSE 9.2 mph - N/A   Clear
11:53 PM 78.1 °F - 57.9 °F 50% 29.87 in 10.0 mi SE 6.9 mph - N/A   Clear